QPF
0.00 0.00 0.00 0.00 0.00 0.00 0.00 0.00 0.00 0.00 0.00 0.00 0.00 0.00 0.00 0.00 0.00 0.00 0.00 0.00 0.00 0.00 0.00 0.00 0.00 0.00 0.00 0.00 0.00 0.00 0.00 0.00 0.00 0.00 0.00 0.00 0.00 0.00 0.00 0.00 0.00 0.00 0.00
0.00 0.00 0.00 0.00 0.00 0.00 0.00 0.00 0.00 0.00 0.00 0.00 0.00 0.00 0.00 0.00 0.00 0.00 0.00 0.00 0.00 0.00 0.00 0.00 0.00 0.00 0.00 0.00 0.00 0.00 0.00 0.00 0.00 0.00 0.00 0.00 0.00 0.00 0.00 0.00 0.00 0.00 0.00
0.00 0.00 0.00 0.00 0.00 0.00 0.00 0.00 0.00 0.00 0.00 0.00 0.00 0.00 0.00 0.00 0.00 0.00 0.00 0.00 0.00 0.00 0.00 0.00 0.00 0.00 0.00 0.00 0.00 0.00 0.00 0.00 0.00 0.00 0.00 0.00 0.00 0.00 0.00 0.00 0.00 0.00 0.00
0.00 0.00 0.00 0.00 0.00 0.00 0.00 0.00 0.00 0.00 0.00 0.00 0.00 0.00 0.00 0.00 0.00 0.00 0.00 0.00 0.00 0.00 0.00 0.00 0.00 0.00 0.00 0.00 0.00 0.00 0.00 0.00 0.00 0.00 0.00 0.00 0.00 0.00 0.00 0.00 0.00 0.00 0.00
0.00 0.00 0.00 0.00 0.00 0.00 0.00 0.00 0.00 0.00 0.00 0.00 0.00 0.00 0.00 0.00 0.00 0.00 0.00 0.00 0.00 0.00 0.00 0.00 0.00 0.00 0.00 0.00 0.00 0.00 0.00 0.00 0.00 0.00 0.00 0.00 0.00 0.00 0.00 0.00 0.00 0.00 0.00
0.00 0.00 0.00 0.00 0.00 0.00 0.00 0.00 0.00 0.00 0.00 0.00 0.00 0.00 0.00 0.00 0.00 0.00 0.00 0.00 0.00 0.00 0.00 0.00 0.00 0.00 0.00 0.00 0.00 0.00 0.00 0.00 0.00 0.00 0.00 0.00 0.00 0.00 0.00 0.00 0.00 0.00 0.00
0.00 0.00 0.00 0.00 0.00 0.00 0.00 0.00 0.00 0.00 0.00 0.00 0.00 0.00 0.00 0.00 0.00 0.00 0.00 0.00 0.00 0.00 0.00 0.00 0.00 0.00 0.00 0.00 0.00 0.00 0.00 0.00 0.00 0.00 0.00 0.00 0.00 0.00 0.00 0.00 0.00 0.00 0.00
0.00 0.00 0.00 0.00 0.00 0.00 0.00 0.00 0.00 0.00 0.00 0.00 0.00 0.00 0.00 0.00 0.00 0.00 0.00 0.00 0.00 0.00 0.00 0.00 0.00 0.00 0.00 0.00 0.00 0.00 0.00 0.00 0.00 0.00 0.00 0.00 0.00 0.00 0.00 0.00 0.00 0.00 0.00
0.00 0.00 0.00 0.00 0.00 0.00 0.00 0.00 0.00 0.00 0.00 0.00 0.00 0.00 0.00 0.00 0.00 0.00 0.00 0.00 0.00 0.00 0.00 0.00 0.00 0.00 0.00 0.00 0.00 0.00 0.00 0.00 0.00 0.00 0.00 0.00 0.00 0.00 0.00 0.00 0.00 0.00 0.00
0.00 0.00 0.00 0.00 0.00 0.00 0.00 0.00 0.00 0.00 0.00 0.00 0.00 0.00 0.00 0.00 0.00 0.00 0.00 0.00 0.00 0.00 0.00 0.00 0.00 0.00 0.00 0.00 0.00 0.00 0.00 0.00 0.00 0.00 0.00 0.00 0.00 0.00 0.00 0.00 0.00 0.00 0.00
0.00 0.00 0.00 0.00 0.00 0.00 0.00 0.00 0.00 0.00 0.00 0.00 0.00 0.00 0.00 0.00 0.00 0.00 0.00 0.00 0.00 0.00 0.00 0.00 0.00 0.00 0.00 0.00 0.00 0.00 0.00 0.00 0.00 0.00 0.00 0.00 0.00 0.00 0.00 0.00 0.00 0.00 0.00
0.00 0.00 0.00 0.00 0.00 0.00 0.00 0.00 0.00 0.00 0.00 0.00 0.00 0.00 0.00 0.00 0.00 0.00 0.00 0.00 0.00 0.00 0.00 0.00 0.00 0.00 0.00 0.00 0.00 0.00 0.00 0.00 0.00 0.00 0.00 0.00 0.00 0.00 0.00 0.00 0.00 0.00 0.00
0.01 0.00 0.01 0.02 0.01 0.02 0.02 0.00 0.00 0.00 0.00 0.00 0.00 0.00 0.00 0.00 0.00 0.00 0.00 0.00 0.00 0.00 0.00 0.00 0.00 0.00 0.00 0.00 0.00 0.00 0.00 0.00 0.00 0.00 0.00 0.00 0.00 0.00 0.00 0.00 0.00 0.00 0.00
0.02 0.02 0.03 0.07 0.05 0.05 0.07 0.03 0.01 0.00 0.00 0.00 0.00 0.00 0.00 0.00 0.00 0.00 0.00 0.00 0.00 0.00 0.00 0.00 0.00 0.00 0.00 0.00 0.00 0.00 0.00 0.00 0.00 0.00 0.00 0.00 0.00 0.00 0.00 0.00 0.00 0.00 0.00
0.05 0.06 0.05 0.08 0.11 0.11 0.09 0.07 0.02 0.00 0.00 0.00 0.00 0.00 0.00 0.00 0.00 0.00 0.00 0.00 0.00 0.00 0.00 0.00 0.00 0.00 0.00 0.00 0.00 0.00 0.00 0.00 0.00 0.00 0.00 0.00 0.00 0.00 0.00 0.00 0.00 0.00 0.00
0.03 0.06 0.06 0.08 0.06 0.07 0.07 0.09 0.06 0.03 0.01 0.00 0.00 0.00 0.00 0.00 0.00 0.00 0.00 0.00 0.00 0.00 0.00 0.00 0.00 0.00 0.00 0.00 0.00 0.00 0.00 0.00 0.00 0.00 0.00 0.00 0.00 0.00 0.00 0.00 0.00 0.00 0.00
0.01 0.01 0.00 0.02 0.03 0.05 0.06 0.07 0.07 0.06 0.02 0.00 0.00 0.00 0.00 0.01 0.01 0.01 0.00 0.00 0.00 0.00 0.00 0.00 0.00 0.00 0.00 0.00 0.00 0.00 0.00 0.00 0.00 0.00 0.00 0.00 0.00 0.00 0.00 0.00 0.00 0.00 0.00
0.02 0.02 0.03 0.04 0.04 0.05 0.06 0.05 0.07 0.08 0.06 0.02 0.01 0.01 0.00 0.02 0.01 0.02 0.01 0.00 0.00 0.00 0.00 0.00 0.00 0.00 0.00 0.00 0.00 0.00 0.00 0.00 0.00 0.00 0.00 0.00 0.00 0.00 0.00 0.00 0.00 0.00 0.00
0.01 0.03 0.05 0.07 0.06 0.05 0.05 0.04 0.04 0.06 0.07 0.06 0.03 0.01 0.01 0.01 0.01 0.01 0.01 0.01 0.00 0.00 0.00 0.00 0.00 0.00 0.00 0.00 0.00 0.00 0.00 0.00 0.00 0.00 0.00 0.00 0.00 0.00 0.00 0.00 0.00 0.00 0.00
0.00 0.01 0.02 0.02 0.05 0.07 0.06 0.05 0.04 0.04 0.06 0.05 0.03 0.03 0.03 0.02 0.01 0.02 0.01 0.01 0.00 0.00 0.00 0.00 0.00 0.00 0.00 0.00 0.00 0.00 0.00 0.00 0.00 0.00 0.00 0.00 0.00 0.00 0.00 0.00 0.00 0.00 0.00
0.00 0.00 0.01 0.01 0.01 0.02 0.05 0.05 0.04 0.03 0.02 0.02 0.02 0.02 0.01 0.00 0.00 0.00 0.00 0.00 0.01 0.00 0.00 0.00 0.00 0.00 0.00 0.00 0.00 0.00 0.00 0.00 0.00 0.00 0.00 0.00 0.00 0.00 0.00 0.00 0.00 0.00 0.00
0.00 0.00 0.01 0.02 0.01 0.00 0.00 0.01 0.01 0.01 0.01 0.01 0.01 0.01 0.01 0.01 0.00 0.00 0.00 0.00 0.01 0.01 0.00 0.00 0.00 0.01 0.00 0.00 0.00 0.00 0.00 0.00 0.00 0.00 0.00 0.00 0.00 0.00 0.00 0.00 0.00 0.00 0.00
0.00 0.00 0.00 0.00 0.00 0.00 0.00 0.00 0.00 0.00 0.00 0.00 0.00 0.01 0.01 0.01 0.01 0.01 0.01 0.00 0.00 0.00 0.00 0.01 0.01 0.01 0.01 0.01 0.00 0.00 0.00 0.00 0.00 0.00 0.00 0.00 0.00 0.00 0.00 0.00 0.00 0.00 0.00
0.00 0.00 0.00 0.00 0.00 0.00 0.00 0.00 0.00 0.00 0.00 0.00 0.00 0.00 0.01 0.01 0.01 0.00 0.01 0.01 0.02 0.01 0.01 0.00 0.01 0.01 0.01 0.01 0.02 0.01 0.01 0.01 0.00 0.00 0.00 0.00 0.00 0.00 0.00 0.00 0.00 0.00 0.00
0.00 0.00 0.00 0.00 0.00 0.00 0.00 0.00 0.00 0.00 0.00 0.00 0.00 0.00 0.00 0.00 0.00 0.00 0.00 0.00 0.00 0.00 0.00 0.00 0.00 0.00 0.00 0.01 0.02 0.03 0.01 0.02 0.00 0.00 0.00 0.00 0.00 0.00 0.00 0.00 0.00 0.00 0.00
0.00 0.00 0.00 0.00 0.00 0.00 0.00 0.00 0.00 0.00 0.00 0.00 0.00 0.00 0.00 0.00 0.00 0.00 0.00 0.00 0.00 0.00 0.00 0.00 0.00 0.00 0.00 0.00 0.00 0.01 0.00 0.01 0.01 0.00 0.00 0.00 0.00 0.00 0.00 0.00 0.00 0.00 0.00
MSLP
1024.02 1023.90 1024.18 1024.53 1025.00 1025.22 1025.77 1026.16 1026.59 1026.89 1027.22 1027.38 1027.43 1027.45 1027.52 1027.44 1027.53 1027.70 1028.35 1029.37 1029.48 1029.53 1029.59 1029.75 1029.97 1030.22 1030.30 1030.42 1030.58 1030.73 1030.77 1030.79 1030.90 1030.99 1031.06 1031.12 1031.18 1031.26 1031.30 1031.26 1031.17 1031.15 1031.01
1024.41 1024.28 1024.30 1024.51 1024.94 1025.28 1025.62 1026.09 1026.54 1026.68 1026.94 1027.25 1027.58 1027.62 1027.69 1027.69 1027.72 1027.88 1027.99 1029.06 1029.60 1029.65 1029.68 1029.85 1030.07 1030.27 1030.51 1030.66 1030.70 1030.77 1030.84 1030.97 1031.05 1031.12 1031.27 1031.25 1031.32 1031.38 1031.42 1031.41 1031.38 1031.30 1031.18
1024.17 1024.21 1024.19 1024.58 1024.91 1025.32 1025.71 1026.04 1026.74 1026.68 1026.89 1027.08 1027.42 1027.71 1027.84 1027.99 1027.88 1028.06 1027.97 1027.92 1028.99 1029.69 1029.76 1029.79 1030.10 1030.15 1030.44 1030.55 1030.79 1030.87 1030.94 1031.03 1031.12 1031.25 1031.36 1031.41 1031.40 1031.35 1031.38 1031.35 1031.37 1031.40 1031.35
1024.15 1024.07 1024.13 1024.35 1024.81 1025.32 1025.59 1025.92 1026.22 1026.43 1026.61 1026.84 1027.09 1027.21 1027.54 1027.85 1028.06 1028.09 1028.06 1028.10 1027.96 1028.06 1029.42 1029.73 1029.90 1030.03 1030.23 1030.39 1030.58 1030.75 1030.85 1031.06 1031.20 1031.23 1031.36 1031.37 1031.42 1031.45 1031.46 1031.42 1031.45 1031.44 1031.43
1024.14 1023.97 1023.96 1024.28 1025.02 1025.12 1025.33 1025.68 1025.83 1026.10 1026.39 1026.70 1027.09 1027.10 1027.38 1027.46 1027.83 1027.83 1027.98 1028.31 1028.26 1028.21 1027.90 1029.07 1029.67 1029.86 1029.97 1030.13 1030.35 1030.48 1030.54 1030.70 1030.95 1030.99 1031.15 1031.25 1031.28 1031.34 1031.33 1031.31 1031.34 1031.35 1031.38
1024.11 1024.15 1024.28 1024.50 1025.14 1024.80 1025.18 1025.52 1025.78 1025.96 1026.02 1026.43 1026.72 1027.22 1027.36 1027.33 1027.54 1027.52 1027.70 1027.92 1027.98 1028.23 1028.20 1028.14 1028.60 1028.97 1029.61 1029.75 1029.86 1030.04 1030.05 1030.07 1030.27 1030.52 1030.59 1030.83 1030.98 1031.04 1031.12 1031.12 1031.16 1031.14 1031.14
1023.46 1023.97 1024.04 1024.56 1024.88 1024.83 1025.06 1025.64 1025.92 1026.10 1026.14 1026.51 1026.80 1027.09 1027.26 1027.46 1027.47 1027.29 1027.37 1027.36 1027.53 1027.84 1027.85 1027.94 1027.96 1027.72 1028.21 1029.01 1029.35 1029.48 1029.51 1029.44 1029.48 1029.68 1029.93 1030.15 1030.39 1030.51 1030.57 1030.65 1030.71 1030.77 1030.82
1023.01 1023.71 1023.74 1024.09 1024.48 1024.58 1025.21 1025.72 1025.88 1025.99 1026.10 1026.51 1026.30 1026.22 1026.16 1026.46 1026.72 1026.88 1026.74 1026.86 1027.11 1027.17 1027.25 1027.61 1027.63 1027.64 1027.56 1027.47 1027.85 1028.69 1028.91 1028.91 1028.81 1028.84 1029.05 1029.32 1029.63 1029.82 1029.90 1029.99 1030.04 1030.12 1030.23
1022.38 1022.92 1023.50 1023.71 1024.10 1024.22 1024.60 1025.20 1025.53 1025.66 1025.72 1026.28 1026.40 1025.79 1025.54 1025.15 1025.40 1025.65 1026.19 1026.35 1026.50 1026.76 1026.75 1026.82 1027.10 1027.23 1027.32 1027.27 1027.33 1027.64 1028.08 1028.36 1028.39 1028.29 1028.26 1028.41 1028.64 1028.87 1029.04 1029.15 1029.36 1029.42 1029.52
1021.78 1021.94 1022.70 1023.33 1023.57 1023.83 1023.96 1024.54 1024.82 1024.99 1025.26 1025.43 1026.07 1026.08 1025.76 1025.58 1025.05 1024.77 1025.43 1025.70 1025.98 1025.99 1026.02 1025.98 1026.08 1026.37 1026.50 1026.58 1026.65 1026.75 1027.02 1027.43 1027.73 1027.87 1027.86 1027.81 1027.81 1027.91 1028.11 1028.27 1028.46 1028.71 1028.77
1021.28 1021.43 1021.91 1022.62 1022.97 1023.35 1023.51 1023.97 1024.40 1024.78 1024.75 1024.71 1025.06 1025.32 1025.62 1025.82 1025.64 1025.33 1024.53 1024.26 1025.17 1025.20 1025.17 1025.23 1025.13 1025.17 1025.29 1025.44 1025.49 1025.63 1025.98 1026.56 1026.95 1027.05 1027.09 1027.16 1027.18 1027.18 1027.15 1027.24 1027.38 1027.60 1027.77
1020.93 1020.91 1021.31 1021.80 1022.45 1022.62 1022.96 1023.46 1023.96 1024.31 1024.42 1024.56 1024.41 1024.65 1024.80 1024.91 1024.68 1024.81 1024.51 1024.24 1024.04 1023.54 1023.80 1024.14 1024.31 1024.43 1024.27 1024.17 1024.31 1024.52 1024.98 1025.39 1025.73 1026.03 1026.18 1026.22 1026.27 1026.28 1026.31 1026.35 1026.37 1026.42 1026.59
1020.21 1020.52 1020.84 1021.28 1021.59 1022.19 1022.40 1022.61 1023.02 1023.50 1023.94 1024.05 1024.17 1024.15 1024.40 1024.27 1024.13 1024.22 1024.20 1023.86 1023.65 1023.58 1023.88 1023.58 1023.46 1023.34 1023.47 1023.43 1023.35 1023.51 1023.89 1024.40 1024.74 1024.93 1025.08 1025.11 1025.13 1025.25 1025.36 1025.39 1025.40 1025.42 1025.47
1019.35 1019.89 1020.42 1020.75 1021.04 1021.34 1022.04 1022.37 1022.41 1022.79 1023.01 1023.39 1023.56 1023.77 1023.68 1023.68 1023.61 1023.55 1023.49 1023.44 1023.13 1022.85 1022.62 1022.73 1022.71 1022.82 1022.92 1022.91 1022.67 1022.92 1023.13 1023.13 1023.26 1023.47 1023.65 1023.87 1023.79 1023.86 1024.05 1024.22 1024.23 1024.29 1024.35
1019.10 1019.66 1019.88 1020.23 1020.62 1021.18 1021.44 1021.59 1021.71 1021.72 1022.16 1022.60 1022.91 1023.10 1023.04 1023.11 1023.07 1022.98 1022.99 1022.91 1022.86 1022.39 1021.50 1021.11 1021.37 1021.14 1021.62 1021.95 1021.92 1022.31 1022.09 1021.94 1022.17 1022.31 1022.48 1022.71 1023.05 1022.67 1022.30 1022.49 1022.73 1022.88 1022.99
1019.29 1019.15 1018.77 1019.96 1020.34 1020.60 1020.44 1020.84 1021.20 1021.29 1021.49 1021.71 1021.92 1021.98 1022.08 1022.04 1022.14 1022.14 1022.21 1022.26 1022.21 1022.09 1021.45 1020.85 1020.40 1020.60 1020.58 1020.31 1020.72 1021.36 1021.38 1021.21 1021.19 1021.31 1021.47 1021.49 1021.49 1021.46 1021.64 1021.37 1021.20 1021.17 1021.35
1018.99 1018.95 1018.72 1019.13 1019.94 1020.36 1020.41 1020.54 1020.32 1020.64 1021.21 1021.36 1021.37 1021.10 1021.03 1021.28 1021.21 1021.14 1021.22 1021.23 1021.21 1021.09 1020.70 1019.94 1020.21 1019.82 1019.91 1019.86 1019.70 1019.93 1020.02 1020.10 1019.81 1019.80 1020.06 1020.14 1019.90 1020.04 1019.68 1019.78 1019.99 1020.27 1020.31
1018.71 1018.40 1018.58 1018.80 1019.02 1019.45 1020.17 1019.85 1019.65 1020.30 1020.64 1020.78 1020.76 1020.74 1020.44 1020.53 1020.52 1020.68 1020.62 1020.45 1020.18 1019.96 1020.26 1019.64 1019.28 1018.95 1019.15 1019.32 1019.18 1018.80 1018.51 1018.26 1018.06 1018.08 1018.31 1018.52 1018.48 1018.48 1018.35 1018.40 1018.36 1018.41 1018.49
1019.01 1018.84 1018.86 1018.85 1018.56 1019.14 1019.27 1019.50 1019.63 1020.01 1019.78 1019.96 1019.72 1020.08 1019.51 1019.76 1019.72 1019.78 1019.94 1019.74 1019.41 1019.43 1019.49 1019.49 1019.00 1018.58 1018.46 1018.36 1018.22 1017.94 1017.66 1017.42 1017.31 1017.09 1017.19 1017.09 1016.94 1016.96 1017.17 1017.17 1017.32 1017.30 1017.03
1018.75 1018.74 1018.88 1018.82 1018.88 1018.78 1019.00 1019.07 1019.32 1019.19 1019.25 1019.48 1019.23 1019.46 1019.29 1019.30 1019.23 1019.16 1019.17 1019.15 1019.16 1019.05 1018.86 1018.79 1018.48 1018.20 1018.02 1017.80 1017.89 1017.60 1016.99 1016.70 1016.35 1016.11 1015.89 1015.82 1015.50 1015.69 1015.70 1015.53 1015.52 1015.60 1015.68
1018.47 1018.32 1018.47 1018.68 1018.71 1018.83 1019.18 1019.39 1019.00 1018.62 1018.65 1018.80 1018.90 1018.85 1018.88 1018.98 1019.05 1018.99 1018.60 1018.58 1018.57 1018.57 1018.56 1018.26 1017.97 1017.65 1017.44 1017.28 1017.17 1016.80 1016.24 1015.87 1015.30 1014.94 1014.40 1013.85 1013.34 1013.52 1013.62 1014.16 1014.07 1014.05 1014.16
1018.43 1018.48 1018.43 1018.56 1018.69 1019.11 1019.91 1019.83 1019.64 1019.18 1018.74 1018.48 1018.45 1018.30 1018.32 1018.29 1018.46 1018.43 1018.11 1018.09 1018.22 1017.96 1017.75 1017.56 1017.06 1016.72 1016.42 1016.34 1016.32 1016.01 1015.41 1014.98 1014.11 1014.08 1013.35 1012.13 1012.16 1011.74 1011.55 1011.53 1011.53 1011.89 1012.13
1018.62 1018.38 1018.37 1018.43 1018.72 1019.43 1020.40 1020.23 1019.85 1019.24 1018.76 1018.43 1018.26 1017.96 1017.70 1018.02 1018.06 1017.81 1017.47 1017.26 1017.17 1017.05 1017.04 1016.94 1016.53 1016.05 1015.58 1015.58 1015.34 1014.80 1014.41 1013.69 1012.75 1012.45 1012.59 1011.06 1011.68 1010.47 1010.27 1009.92 1009.93 1010.22 1010.60
1018.72 1018.19 1018.35 1018.67 1019.15 1020.49 1020.67 1020.26 1019.53 1018.81 1018.20 1017.86 1017.80 1017.82 1017.90 1017.88 1018.88 1018.57 1017.93 1017.15 1016.42 1015.97 1015.90 1016.01 1016.13 1015.41 1015.11 1014.78 1014.56 1013.98 1013.13 1012.37 1011.67 1011.34 1011.63 1010.01 1010.49 1009.42 1009.41 1008.54 1008.33 1008.46 1008.61
1019.09 1019.33 1019.65 1019.83 1020.31 1020.99 1021.07 1020.66 1019.29 1018.00 1017.60 1017.82 1018.08 1018.50 1018.86 1019.12 1019.17 1018.59 1018.13 1017.46 1016.88 1016.35 1015.64 1015.65 1015.57 1015.18 1014.81 1014.52 1014.33 1013.99 1012.81 1012.40 1010.89 1010.22 1010.22 1009.74 1008.72 1008.58 1008.17 1007.23 1006.99 1006.78 1006.87
1020.02 1020.37 1020.59 1020.86 1021.16 1021.05 1021.28 1020.91 1019.96 1018.57 1017.98 1018.01 1018.08 1018.73 1019.34 1019.71 1019.31 1018.94 1018.58 1018.32 1017.76 1017.25 1016.90 1016.17 1015.17 1014.24 1014.00 1013.55 1013.56 1013.61 1012.72 1011.80 1010.93 1009.40 1009.07 1009.09 1008.25 1008.19 1006.75 1005.60 1005.41 1005.14 1004.65
Thickness
5660 5662 5662 5661 5659 5658 5654 5653 5650 5648 5645 5644 5643 5642 5640 5640 5638 5637 5633 5628 5627 5626 5624 5622 5620 5618 5616 5615 5614 5612 5611 5610 5609 5606 5605 5603 5601 5598 5596 5595 5593 5590 5588
5654 5656 5658 5657 5656 5654 5653 5650 5647 5648 5645 5642 5640 5639 5638 5636 5636 5634 5633 5626 5623 5623 5621 5620 5617 5615 5612 5611 5610 5610 5609 5607 5605 5603 5601 5600 5598 5596 5593 5591 5588 5586 5584
5654 5653 5654 5653 5653 5650 5649 5648 5643 5645 5643 5642 5639 5637 5635 5633 5633 5630 5630 5630 5624 5620 5619 5617 5615 5613 5610 5609 5607 5606 5605 5605 5602 5600 5597 5596 5595 5593 5591 5588 5586 5583 5580
5649 5650 5651 5651 5649 5647 5647 5645 5644 5644 5643 5642 5640 5638 5635 5633 5630 5629 5627 5626 5627 5627 5619 5616 5613 5612 5609 5607 5605 5603 5602 5600 5599 5597 5595 5593 5591 5589 5587 5585 5583 5580 5577
5644 5646 5647 5646 5644 5645 5645 5643 5644 5643 5642 5640 5638 5637 5634 5633 5630 5630 5628 5623 5622 5622 5624 5618 5613 5610 5608 5606 5603 5601 5600 5599 5596 5596 5593 5591 5589 5587 5585 5583 5581 5578 5575
5638 5640 5641 5641 5638 5643 5642 5641 5641 5640 5641 5639 5638 5634 5632 5633 5630 5629 5628 5625 5622 5619 5619 5619 5615 5612 5608 5606 5603 5601 5600 5599 5597 5594 5592 5589 5587 5585 5583 5581 5578 5576 5573
5639 5637 5638 5636 5636 5637 5639 5636 5636 5635 5636 5635 5632 5631 5630 5630 5629 5628 5627 5626 5623 5620 5619 5617 5615 5615 5613 5607 5604 5601 5600 5599 5597 5595 5592 5589 5586 5584 5582 5580 5577 5574 5571
5636 5634 5636 5635 5634 5635 5632 5629 5630 5631 5631 5629 5631 5633 5631 5632 5631 5629 5629 5627 5623 5621 5620 5616 5614 5612 5611 5611 5608 5604 5600 5599 5598 5597 5594 5590 5586 5584 5582 5579 5577 5574 5571
5635 5634 5632 5632 5631 5633 5631 5628 5627 5627 5627 5625 5625 5630 5627 5631 5634 5634 5628 5627 5624 5621 5620 5618 5615 5612 5610 5609 5607 5604 5602 5599 5597 5596 5594 5592 5589 5585 5583 5580 5576 5573 5570
5634 5635 5632 5629 5629 5629 5631 5627 5626 5628 5627 5624 5622 5621 5624 5626 5628 5630 5627 5626 5623 5622 5621 5620 5618 5615 5613 5611 5609 5606 5604 5601 5597 5594 5592 5591 5590 5587 5584 5580 5577 5572 5569
5632 5634 5631 5627 5627 5626 5627 5625 5624 5622 5624 5626 5622 5620 5618 5616 5618 5618 5623 5631 5623 5622 5622 5621 5620 5619 5617 5615 5613 5610 5608 5603 5598 5595 5593 5590 5588 5586 5584 5582 5579 5574 5570
5627 5630 5629 5627 5623 5624 5623 5619 5616 5616 5618 5619 5621 5619 5618 5616 5616 5615 5616 5618 5621 5627 5626 5621 5618 5618 5619 5620 5618 5615 5610 5606 5602 5598 5595 5592 5590 5587 5584 5582 5580 5576 5573
5626 5627 5626 5624 5621 5618 5618 5618 5617 5614 5612 5613 5613 5614 5614 5615 5617 5614 5613 5613 5614 5617 5615 5619 5618 5617 5616 5616 5617 5616 5612 5608 5604 5602 5598 5595 5592 5589 5586 5584 5581 5577 5573
5629 5623 5621 5619 5619 5617 5615 5612 5612 5609 5609 5610 5609 5609 5610 5612 5614 5614 5611 5610 5610 5614 5619 5617 5616 5614 5611 5612 5614 5611 5610 5610 5607 5606 5603 5600 5597 5594 5590 5587 5584 5580 5577
5621 5615 5615 5616 5614 5613 5611 5611 5612 5611 5609 5608 5607 5607 5608 5609 5611 5612 5611 5611 5608 5607 5615 5622 5617 5618 5614 5611 5611 5606 5608 5609 5608 5606 5603 5601 5596 5597 5598 5594 5589 5585 5581
5607 5610 5613 5604 5605 5609 5612 5612 5608 5608 5609 5610 5610 5611 5612 5612 5610 5612 5610 5610 5609 5608 5609 5617 5619 5616 5614 5615 5611 5606 5605 5606 5606 5605 5602 5600 5599 5598 5594 5594 5593 5591 5587
5601 5602 5605 5605 5600 5603 5605 5604 5607 5601 5602 5605 5607 5611 5612 5610 5611 5612 5612 5611 5610 5610 5611 5622 5616 5617 5614 5613 5613 5609 5608 5606 5607 5607 5602 5601 5602 5600 5600 5597 5593 5588 5585
5590 5596 5597 5599 5602 5601 5599 5598 5605 5601 5601 5599 5603 5606 5610 5610 5610 5608 5609 5609 5610 5612 5607 5614 5619 5619 5614 5610 5610 5611 5611 5612 5611 5611 5607 5603 5603 5602 5600 5597 5594 5592 5588
5580 5583 5584 5591 5596 5593 5596 5596 5597 5595 5597 5600 5601 5601 5607 5608 5608 5608 5605 5607 5610 5609 5606 5603 5609 5615 5614 5612 5610 5611 5611 5609 5609 5609 5607 5607 5606 5603 5600 5597 5592 5589 5588
5575 5577 5578 5581 5584 5587 5590 5593 5594 5596 5596 5595 5594 5598 5602 5601 5602 5604 5603 5603 5603 5602 5602 5600 5602 5605 5606 5607 5603 5603 5605 5605 5605 5604 5606 5606 5605 5604 5603 5600 5597 5593 5588
5569 5573 5574 5575 5578 5581 5580 5578 5585 5592 5594 5593 5592 5594 5595 5595 5593 5594 5599 5597 5597 5595 5594 5595 5595 5598 5599 5599 5597 5599 5600 5601 5605 5604 5607 5609 5610 5607 5604 5599 5596 5593 5589
5560 5563 5568 5567 5570 5569 5561 5564 5567 5575 5581 5585 5586 5589 5590 5590 5588 5587 5590 5589 5588 5591 5591 5590 5595 5593 5595 5593 5591 5591 5594 5595 5599 5601 5602 5612 5607 5609 5607 5605 5602 5597 5593
5551 5555 5558 5561 5560 5557 5548 5551 5555 5564 5569 5572 5576 5580 5584 5582 5580 5584 5586 5583 5581 5580 5578 5581 5587 5589 5589 5586 5586 5586 5587 5590 5596 5598 5591 5605 5598 5607 5605 5605 5604 5599 5593
5541 5548 5549 5548 5548 5539 5537 5541 5546 5556 5562 5564 5565 5566 5568 5570 5557 5562 5568 5574 5579 5580 5576 5572 5571 5578 5578 5579 5575 5575 5580 5583 5589 5590 5583 5596 5592 5600 5598 5603 5604 5600 5596
5528 5529 5528 5529 5527 5523 5524 5527 5537 5553 5555 5552 5548 5546 5544 5542 5541 5546 5551 5556 5560 5561 5561 5560 5560 5562 5562 5562 5559 5555 5564 5560 5574 5582 5577 5573 5590 5584 5586 5597 5597 5597 5596
5509 5506 5506 5507 5507 5511 5510 5514 5519 5532 5535 5533 5531 5528 5524 5522 5524 5528 5530 5530 5533 5535 5534 5538 5545 5550 5548 5549 5547 5539 5543 5545 5551 5565 5573 5555 5567 5563 5570 5591 5590 5592 5592